Flag for Canada Weather past 2 weeks in Rankin Inlet, Nunavut Territory, Canada

Now
9 °F

Scattered clouds.


Feels Like: -7 °F
Forecast: -5 / 8 °F
Wind: 13 mph from North

Location: Rankin Inlet


UV Index: 0 (Low)

Visibility: 15 mi


Pressure: 30.45 "Hg

Humidity: 78%

Dew point: 3 °F

Location of Rankin InletLocation

Historic Weather in Rankin Inlet

°F

Rankin Inlet temperature yesterday

Maximum temperature yesterday: 10 °F (at 5:00 PM)
Minimum temperature yesterday: 1 °F (at 10:00 PM)
Average temperature yesterday: 6 °F

Past Weeks' High & Low Weather Summary

 TemperatureHumidityPressure
High25 °F (Apr 20, 6:00 PM)93% (Apr 20, 1:00 PM)30.46 "Hg (Apr 20, 1:00 PM)
Low-18 °F (Apr 13, 5:00 AM)67% (Apr 16, 2:00 PM)29.48 "Hg (Apr 11, 3:00 AM)
Average1 °F78%30.02 "Hg
* Reported Apr 9 12:00 Noon — Apr 24 12:00 Noon, Rankin Inlet, Weather by CustomWeather, © 2014

Note: Actual official high and low records may vary slightly from our data, if they occured in-between our weather recording intervals... More about our weather records

Advertising

Historic Weather Conditions — Data for Previous 24 hours

 ConditionsComfort  
Time TempWeatherWind HumidityBarometerVisibility
12:00 PM
Apr 24
5 °FScattered clouds.15 mph78%30.45 "Hg15 mi
11:00 AM3 °FScattered clouds.14 mph78%30.46 "Hg15 mi
10:00 AM1 °FPassing clouds.10 mph78%30.45 "Hg15 mi
9:00 AM0 °FPassing clouds.10 mph78%30.45 "Hg15 mi
8:00 AM-2 °FPassing clouds.10 mph77%30.45 "Hg15 mi
7:00 AM-4 °FSunny.13 mph77%30.45 "Hg15 mi
6:00 AM-6 °FSunny.15 mph84%30.43 "Hg15 mi
5:00 AM-6 °FClear.13 mph84%30.43 "Hg15 mi
4:00 AM-4 °FClear.14 mph77%30.43 "Hg15 mi
3:00 AM-4 °FClear.12 mph84%30.45 "Hg15 mi
2:00 AM-2 °FClear.16 mph77%30.44 "Hg15 mi
1:00 AM-2 °FClear.16 mph84%30.45 "Hg15 mi
12:00 AM0 °FClear.14 mph78%30.43 "Hg15 mi
11:00 PM
Apr 23
1 °FClear.9 mph78%30.42 "Hg15 mi
10:00 PM1 °FClear.10 mph85%30.41 "Hg15 mi
9:00 PM3 °FClear.15 mph85%30.40 "Hg15 mi
8:00 PM7 °FSunny.12 mph78%30.40 "Hg15 mi
7:00 PM9 °FSunny.12 mph78%30.40 "Hg15 mi
6:00 PM10 °FSunny.18 mph72%30.39 "Hg15 mi
5:00 PM10 °FSunny.14 mph72%30.39 "Hg15 mi
4:00 PM9 °FSunny.13 mph78%30.38 "Hg15 mi
3:00 PM9 °FSunny.15 mph78%30.37 "Hg15 mi
2:00 PM7 °FSunny.14 mph78%30.36 "Hg15 mi
1:00 PM5 °FSunny.16 mph85%30.35 "Hg15 mi
Weather by CustomWeather, © 2014

See weather overview